Estación de Olivar Alto

Ultimos registro cada 15 minutos 22
Estación Fecha / Hora Temperatura Humedad Lluvia Velocidad Dirección Radiación Presion
22 Olivar Alto 09-05-2026 05:15 8,8 94 0 0 233 0 1018,9
21 Olivar Alto 09-05-2026 05:00 8,8 94 0 0 235 0 1018,9
20 Olivar Alto 09-05-2026 04:45 8,9 95 0 0 235 0 1019
19 Olivar Alto 09-05-2026 04:30 8,9 95 0 0 235 0 1019,1
18 Olivar Alto 09-05-2026 04:15 8,9 95 0 0,4 168 0 1019,3
17 Olivar Alto 09-05-2026 04:00 8,9 95 0 0 141 0 1019,4
16 Olivar Alto 09-05-2026 03:45 8,9 95 0 0 142 0 1019,6
15 Olivar Alto 09-05-2026 03:30 8,9 95 0 0 142 0 1019,6
14 Olivar Alto 09-05-2026 03:15 8,9 95 0 0 142 0 1019,7
13 Olivar Alto 09-05-2026 03:00 8,9 95 0 0 142 0 1019,7
12 Olivar Alto 09-05-2026 02:45 8,9 95 0 0 141 0 1019,8
11 Olivar Alto 09-05-2026 02:30 8,9 96 0 0,4 233 0 1020,2
10 Olivar Alto 09-05-2026 02:15 8,8 96 0 0 213 0 1020,1
9 Olivar Alto 09-05-2026 02:00 8,7 96 0 0,4 226 0 1020,3
8 Olivar Alto 09-05-2026 01:45 8,4 96 0 0,4 216 0 1019,9
7 Olivar Alto 09-05-2026 01:30 8,3 96 0 0 259 0 1019,9
6 Olivar Alto 09-05-2026 01:15 7,8 96 0 0 261 0 1019,6
5 Olivar Alto 09-05-2026 01:00 7,6 95 0 0 144 0 1019,6
4 Olivar Alto 09-05-2026 00:45 7,8 94 0 0 144 0 1019,7
3 Olivar Alto 09-05-2026 00:30 8,2 94 0 0 145 0 1019,7
2 Olivar Alto 09-05-2026 00:15 8,6 94 0 0 144 0 1020
1 Olivar Alto 09-05-2026 00:00 9 94 0 0 144 0 1020,2